THY7KF LTFM-LOWW

Flight info

Callsign THY7KF
Flight time 1h 51m
Altitude 38000
Route TUDBU DCT ETUBA DCT APROB DCT BALUX DCT TORNO DCT NATEX NATEX2W
Aircraft B77W/H-SDE1E2E3FGHIJ2J3J4J5M1RWXY/LB1D1

Departure

Time 2026-05-06 10:31
Airport İstanbul Airport (LTFM)

Arrival

Time 2026-05-06 12:22
Airport Vienna International Airport (LOWW)
Time Latitude Longitude Altitude Speed Heading
2026-05-06 09:26 41.26787 28.73621 318 ft 0 kts 180°
2026-05-06 10:21 41.26788 28.73621 318 ft 2 kts 180°
2026-05-06 10:21 41.26808 28.73622 318 ft 3 kts 189°
2026-05-06 10:21 41.26827 28.73628 318 ft 3 kts 200°
2026-05-06 10:21 41.26846 28.73639 318 ft 3 kts 214°
2026-05-06 10:22 41.26861 28.73656 317 ft 3 kts 232°
2026-05-06 10:22 41.26871 28.73678 315 ft 3 kts 258°
2026-05-06 10:22 41.26872 28.73689 318 ft 0 kts 269°
2026-05-06 10:26 41.26872 28.73658 318 ft 9 kts 269°
2026-05-06 10:27 41.26871 28.73567 318 ft 10 kts 269°
2026-05-06 10:27 41.26870 28.73471 318 ft 11 kts 269°
2026-05-06 10:27 41.26869 28.73370 318 ft 11 kts 269°
2026-05-06 10:27 41.26868 28.73265 318 ft 12 kts 269°
2026-05-06 10:28 41.26866 28.73161 317 ft 11 kts 269°
2026-05-06 10:28 41.26865 28.73058 315 ft 8 kts 269°
2026-05-06 10:28 41.26856 28.73006 319 ft 6 kts 231°
2026-05-06 10:28 41.26818 28.72992 317 ft 6 kts 182°
2026-05-06 10:29 41.26779 28.72992 317 ft 6 kts 180°
2026-05-06 10:29 41.26736 28.72988 317 ft 6 kts 195°
2026-05-06 10:29 41.26717 28.72937 319 ft 7 kts 265°
2026-05-06 10:29 41.26716 28.72847 326 ft 10 kts 269°
2026-05-06 10:30 41.26717 28.72791 329 ft 4 kts 283°
2026-05-06 10:30 41.26735 28.72769 325 ft 4 kts 332°
2026-05-06 10:30 41.26766 28.72765 327 ft 11 kts 359°
2026-05-06 10:30 41.27019 28.72760 325 ft 72 kts 359°
2026-05-06 10:31 41.27799 28.72744 321 ft 148 kts 359°
2026-05-06 10:31 41.29026 28.72705 392 ft 195 kts 359°
2026-05-06 10:31 41.30325 28.72634 1399 ft 182 kts 358°
2026-05-06 10:31 41.31598 28.72627 2250 ft 186 kts 359°
2026-05-06 10:32 41.32950 28.72621 3046 ft 201 kts
2026-05-06 10:32 41.34414 28.72655 3519 ft 223 kts
2026-05-06 10:32 41.36068 28.72656 3892 ft 246 kts 359°
2026-05-06 10:32 41.37782 28.72607 4734 ft 252 kts 358°
2026-05-06 10:33 41.39546 28.72411 4981 ft 261 kts 349°
2026-05-06 10:33 41.41265 28.71680 5255 ft 260 kts 333°
2026-05-06 10:33 41.42759 28.70355 6217 ft 256 kts 326°
2026-05-06 10:33 41.44242 28.69039 7156 ft 258 kts 331°
2026-05-06 10:34 41.45817 28.67859 8016 ft 261 kts 334°
2026-05-06 10:34 41.47435 28.66735 8908 ft 264 kts 335°
2026-05-06 10:34 41.49088 28.65630 9774 ft 267 kts 335°
2026-05-06 10:34 41.50776 28.64530 10531 ft 275 kts 336°
2026-05-06 10:35 41.52574 28.63373 10823 ft 301 kts 336°
2026-05-06 10:35 41.54553 28.62106 11049 ft 329 kts 336°
2026-05-06 10:35 41.56660 28.60744 11639 ft 341 kts 334°
2026-05-06 10:35 41.58607 28.58833 12397 ft 352 kts 316°
2026-05-06 10:36 41.60250 28.56345 13277 ft 362 kts 314°
2026-05-06 10:36 41.61925 28.53795 14279 ft 367 kts 314°
2026-05-06 10:36 41.63641 28.51244 15288 ft 370 kts 314°
2026-05-06 10:36 41.65380 28.48687 16267 ft 374 kts 314°
2026-05-06 10:37 41.67110 28.46043 17180 ft 381 kts 309°
2026-05-06 10:37 41.68371 28.42953 17899 ft 389 kts 296°
2026-05-06 10:37 41.69425 28.39571 18691 ft 397 kts 295°
2026-05-06 10:37 41.70486 28.36149 19536 ft 400 kts 295°
2026-05-06 10:38 41.71569 28.32706 20406 ft 404 kts 295°
2026-05-06 10:38 41.72683 28.29225 21217 ft 408 kts 295°
2026-05-06 10:38 41.73816 28.25723 21991 ft 414 kts 295°
2026-05-06 10:38 41.74972 28.22166 22764 ft 419 kts 295°
2026-05-06 10:39 41.76143 28.18568 23542 ft 424 kts 295°
2026-05-06 10:39 41.77325 28.14929 24202 ft 428 kts 295°
2026-05-06 10:39 41.78518 28.11253 24847 ft 432 kts 295°
2026-05-06 10:39 41.79789 28.07602 25508 ft 432 kts 302°
2026-05-06 10:40 41.81488 28.04284 26116 ft 434 kts 309°
2026-05-06 10:40 41.83366 28.01090 26712 ft 438 kts 310°
2026-05-06 10:40 41.85276 27.97880 27317 ft 441 kts 310°
2026-05-06 10:40 41.87171 27.94631 27922 ft 445 kts 309°
2026-05-06 10:41 41.89061 27.91320 28518 ft 448 kts 309°
2026-05-06 10:41 41.90946 27.87963 29106 ft 451 kts 308°
2026-05-06 10:41 41.92834 27.84576 29631 ft 455 kts 308°
2026-05-06 10:41 41.94735 27.81165 30141 ft 458 kts 308°
2026-05-06 10:42 41.96654 27.77734 30545 ft 460 kts 309°
2026-05-06 10:42 41.98726 27.74452 30922 ft 462 kts 314°
2026-05-06 10:42 42.00963 27.71348 31404 ft 461 kts 316°
2026-05-06 10:42 42.03218 27.68377 31957 ft 458 kts 317°
2026-05-06 10:43 42.05501 27.65394 32513 ft 456 kts 317°
2026-05-06 10:43 42.07763 27.62408 33051 ft 455 kts 317°
2026-05-06 10:43 42.09999 27.59413 33542 ft 454 kts 316°
2026-05-06 10:44 42.13713 27.54357 34324 ft 452 kts 316°
2026-05-06 10:44 42.15890 27.51366 34696 ft 452 kts 316°
2026-05-06 10:44 42.18089 27.48334 35034 ft 453 kts 316°
2026-05-06 10:44 42.20290 27.45294 35385 ft 453 kts 316°
2026-05-06 10:45 42.22487 27.42256 35733 ft 453 kts 316°
2026-05-06 10:45 42.24689 27.39210 36086 ft 452 kts 315°
2026-05-06 10:45 42.26887 27.36166 36428 ft 453 kts 315°
2026-05-06 10:45 42.29087 27.33119 36752 ft 453 kts 315°
2026-05-06 10:46 42.31287 27.30069 37073 ft 453 kts 315°
2026-05-06 10:46 42.33482 27.27020 37375 ft 453 kts 315°
2026-05-06 10:46 42.35686 27.23958 37644 ft 455 kts 315°
2026-05-06 10:46 42.37891 27.20891 37893 ft 455 kts 315°
2026-05-06 10:47 42.40112 27.17800 38025 ft 459 kts 315°
2026-05-06 10:47 42.44601 27.11538 38074 ft 468 kts 315°
2026-05-06 10:48 42.49143 27.05187 38061 ft 469 kts 315°
2026-05-06 10:48 42.53641 26.98883 38082 ft 467 kts 315°
2026-05-06 10:49 42.58151 26.92551 38064 ft 466 kts 315°
2026-05-06 10:49 42.62650 26.86219 38062 ft 465 kts 315°
2026-05-06 10:50 42.67132 26.79898 38049 ft 464 kts 315°
2026-05-06 10:50 42.71604 26.73575 38053 ft 463 kts 315°
2026-05-06 10:51 42.76073 26.67243 38046 ft 463 kts 315°
2026-05-06 10:51 42.80531 26.60913 38042 ft 463 kts 315°
2026-05-06 10:52 42.85053 26.54659 38043 ft 463 kts 316°
2026-05-06 10:52 42.89667 26.48532 38042 ft 463 kts 317°
2026-05-06 10:53 42.94252 26.42433 38029 ft 463 kts 316°
2026-05-06 10:53 42.98849 26.36263 38049 ft 463 kts 316°
2026-05-06 10:54 43.03433 26.30079 38049 ft 463 kts 316°
2026-05-06 10:54 43.08022 26.23872 38043 ft 463 kts 316°
2026-05-06 10:55 43.12602 26.17663 38040 ft 464 kts 316°
2026-05-06 10:55 43.17184 26.11440 38035 ft 464 kts 316°
2026-05-06 10:56 43.21761 26.05209 38034 ft 464 kts 316°
2026-05-06 10:56 43.26341 25.98960 38030 ft 464 kts 316°
2026-05-06 10:57 43.30881 25.92752 38008 ft 464 kts 316°
2026-05-06 10:57 43.35454 25.86486 38023 ft 464 kts 316°
2026-05-06 10:58 43.40021 25.80211 37998 ft 464 kts 316°
2026-05-06 10:58 43.44581 25.73933 38016 ft 464 kts 316°
2026-05-06 10:59 43.49122 25.67668 38000 ft 458 kts 316°
2026-05-06 10:59 43.53592 25.61484 37995 ft 453 kts 316°
2026-05-06 11:00 43.58025 25.55339 38008 ft 451 kts 316°
2026-05-06 11:00 43.62443 25.49205 38022 ft 450 kts 316°
2026-05-06 11:01 43.66824 25.43106 38017 ft 450 kts 316°
2026-05-06 11:01 43.71237 25.36949 38007 ft 451 kts 316°
2026-05-06 11:02 43.75655 25.30771 38016 ft 452 kts 316°
2026-05-06 11:02 43.80080 25.24569 38012 ft 453 kts 316°
2026-05-06 11:03 43.84523 25.18328 38009 ft 454 kts 316°
2026-05-06 11:03 43.88932 25.12121 38010 ft 455 kts 316°
2026-05-06 11:04 43.93367 25.05861 38018 ft 455 kts 316°
2026-05-06 11:04 43.97785 24.99575 38001 ft 453 kts 314°
2026-05-06 11:05 44.01981 24.93064 38012 ft 451 kts 313°
2026-05-06 11:05 44.06098 24.86491 38013 ft 450 kts 313°
2026-05-06 11:06 44.10212 24.79926 38010 ft 450 kts 313°
2026-05-06 11:06 44.14341 24.73357 38009 ft 451 kts 313°
2026-05-06 11:07 44.18473 24.66784 38010 ft 451 kts 313°
2026-05-06 11:07 44.22615 24.60180 38009 ft 452 kts 313°
2026-05-06 11:08 44.26751 24.53572 38013 ft 453 kts 313°
2026-05-06 11:08 44.30889 24.46942 38012 ft 453 kts 313°
2026-05-06 11:09 44.35001 24.40339 38005 ft 453 kts 312°
2026-05-06 11:09 44.39137 24.33683 38011 ft 453 kts 312°
2026-05-06 11:10 44.43265 24.27023 38015 ft 453 kts 312°
2026-05-06 11:10 44.47385 24.20361 38011 ft 452 kts 312°
2026-05-06 11:11 44.51500 24.13689 38005 ft 452 kts 312°
2026-05-06 11:11 44.55603 24.07024 38007 ft 451 kts 312°
2026-05-06 11:12 44.59694 24.00362 38014 ft 451 kts 312°
2026-05-06 11:12 44.63781 23.93691 38006 ft 450 kts 312°
2026-05-06 11:13 44.67859 23.87017 38005 ft 450 kts 311°
2026-05-06 11:13 44.71928 23.80343 38010 ft 449 kts 311°
2026-05-06 11:14 44.75995 23.73658 38002 ft 449 kts 311°
2026-05-06 11:14 44.80031 23.67009 38004 ft 449 kts 311°
2026-05-06 11:15 44.84083 23.60314 38007 ft 449 kts 311°
2026-05-06 11:15 44.88125 23.53620 38002 ft 448 kts 311°
2026-05-06 11:16 44.92162 23.46922 38000 ft 448 kts 311°
2026-05-06 11:16 44.96196 23.40211 38011 ft 448 kts 311°
2026-05-06 11:17 45.00222 23.33498 38008 ft 448 kts 311°
2026-05-06 11:17 45.04249 23.26767 38014 ft 447 kts 311°
2026-05-06 11:18 45.08236 23.20086 38010 ft 447 kts 310°
2026-05-06 11:18 45.12248 23.13347 38013 ft 447 kts 310°
2026-05-06 11:19 45.16250 23.06613 38009 ft 447 kts 310°
2026-05-06 11:19 45.20249 22.99861 38016 ft 447 kts 310°
2026-05-06 11:20 45.24245 22.93101 38015 ft 447 kts 310°
2026-05-06 11:20 45.28239 22.86329 38009 ft 447 kts 310°
2026-05-06 11:21 45.32229 22.79548 38005 ft 447 kts 310°
2026-05-06 11:21 45.36214 22.72758 38010 ft 447 kts 310°
2026-05-06 11:22 45.40201 22.65949 38009 ft 447 kts 310°
2026-05-06 11:22 45.44179 22.59138 37997 ft 447 kts 310°
2026-05-06 11:23 45.48149 22.52321 38001 ft 447 kts 310°
2026-05-06 11:23 45.52085 22.45550 37995 ft 447 kts 309°
2026-05-06 11:24 45.56036 22.38736 37982 ft 446 kts 309°
2026-05-06 11:24 45.59979 22.31920 37996 ft 444 kts 309°
2026-05-06 11:25 45.63912 22.25104 37997 ft 444 kts 309°
2026-05-06 11:25 45.67842 22.18276 37990 ft 444 kts 309°
2026-05-06 11:26 45.71760 22.11452 37992 ft 444 kts 309°
2026-05-06 11:26 45.75674 22.04619 37992 ft 444 kts 309°
2026-05-06 11:27 45.79587 21.97771 37995 ft 444 kts 309°
2026-05-06 11:27 45.83473 21.90954 37990 ft 444 kts 308°
2026-05-06 11:28 45.87368 21.84103 37994 ft 443 kts 308°
2026-05-06 11:28 45.91266 21.77231 37995 ft 443 kts 308°
2026-05-06 11:29 45.95160 21.70349 37985 ft 444 kts 308°
2026-05-06 11:29 45.99045 21.63467 37996 ft 444 kts 308°
2026-05-06 11:30 46.02937 21.56555 37992 ft 443 kts 308°
2026-05-06 11:30 46.06794 21.49688 37992 ft 443 kts 308°
2026-05-06 11:31 46.10664 21.42779 37994 ft 443 kts 308°
2026-05-06 11:31 46.13908 21.36977 37991 ft 443 kts 307°
2026-05-06 11:32 46.17776 21.30040 37993 ft 443 kts 307°
2026-05-06 11:32 46.21607 21.23155 37993 ft 443 kts 307°
2026-05-06 11:33 46.25457 21.16216 37995 ft 442 kts 307°
2026-05-06 11:33 46.29300 21.09275 37989 ft 442 kts 307°
2026-05-06 11:34 46.33140 21.02320 37984 ft 442 kts 307°
2026-05-06 11:34 46.36972 20.95362 37972 ft 442 kts 307°
2026-05-06 11:35 46.40801 20.88394 37966 ft 442 kts 306°
2026-05-06 11:35 46.44626 20.81414 37963 ft 442 kts 306°
2026-05-06 11:36 46.48455 20.74409 37953 ft 442 kts 306°
2026-05-06 11:36 46.52274 20.67407 37955 ft 442 kts 306°
2026-05-06 11:37 46.56090 20.60391 37943 ft 442 kts 304°
2026-05-06 11:37 46.59859 20.53450 37944 ft 433 kts 304°
2026-05-06 11:38 46.63579 20.46577 37957 ft 432 kts 304°
2026-05-06 11:38 46.67273 20.39729 37948 ft 432 kts 303°
2026-05-06 11:39 46.71012 20.32782 37956 ft 433 kts 303°
2026-05-06 11:39 46.74707 20.25903 37949 ft 434 kts 303°
2026-05-06 11:40 46.78455 20.18909 37947 ft 435 kts 303°
2026-05-06 11:40 46.82163 20.11970 37947 ft 437 kts 303°
2026-05-06 11:41 46.85900 20.04960 37939 ft 437 kts 303°
2026-05-06 11:41 46.89636 19.97936 37944 ft 438 kts 303°
2026-05-06 11:42 46.93378 19.90882 37939 ft 439 kts 303°
2026-05-06 11:42 46.97114 19.83820 37943 ft 439 kts 303°
2026-05-06 11:43 47.00843 19.76754 37939 ft 439 kts 302°
2026-05-06 11:43 47.04580 19.69653 37942 ft 439 kts 302°
2026-05-06 11:44 47.10181 19.58979 37941 ft 440 kts 302°
2026-05-06 11:44 47.13913 19.51842 37938 ft 441 kts 302°
2026-05-06 11:45 47.17615 19.44743 37938 ft 441 kts 302°
2026-05-06 11:45 47.21350 19.37563 37698 ft 445 kts 302°
2026-05-06 11:46 47.23239 19.33921 37148 ft 448 kts 302°
2026-05-06 11:46 47.25121 19.30295 36661 ft 442 kts 303°
2026-05-06 11:46 47.26980 19.26710 36155 ft 437 kts 303°
2026-05-06 11:46 47.28817 19.23161 35701 ft 433 kts 303°
2026-05-06 11:47 47.30627 19.19657 35221 ft 429 kts 303°
2026-05-06 11:47 47.32428 19.16160 34722 ft 426 kts 303°
2026-05-06 11:47 47.34075 19.12571 34257 ft 420 kts 298°
2026-05-06 11:47 47.35454 19.08803 33728 ft 416 kts 292°
2026-05-06 11:48 47.36659 19.04949 33196 ft 412 kts 292°
2026-05-06 11:48 47.37841 19.01121 32712 ft 409 kts 292°
2026-05-06 11:48 47.39017 18.97311 32226 ft 405 kts 292°
2026-05-06 11:48 47.40168 18.93591 31770 ft 402 kts 292°
2026-05-06 11:49 47.41342 18.89812 31299 ft 399 kts 292°
2026-05-06 11:49 47.42481 18.86149 30857 ft 396 kts 292°
2026-05-06 11:49 47.43627 18.82467 30406 ft 393 kts 291°
2026-05-06 11:49 47.44765 18.78808 29965 ft 391 kts 291°
2026-05-06 11:50 47.45897 18.75165 29460 ft 388 kts 291°
2026-05-06 11:50 47.47030 18.71513 28977 ft 384 kts 291°
2026-05-06 11:50 47.48136 18.67940 28513 ft 380 kts 291°
2026-05-06 11:50 47.49216 18.64445 28086 ft 377 kts 291°
2026-05-06 11:51 47.50300 18.60935 27636 ft 374 kts 291°
2026-05-06 11:51 47.51378 18.57442 27198 ft 371 kts 291°
2026-05-06 11:51 47.52446 18.53973 26770 ft 369 kts 291°
2026-05-06 11:51 47.53504 18.50529 26327 ft 367 kts 291°
2026-05-06 11:52 47.54432 18.47043 25899 ft 363 kts 285°
2026-05-06 11:52 47.55207 18.43490 25486 ft 361 kts 285°
2026-05-06 11:52 47.55952 18.39959 25062 ft 359 kts 284°
2026-05-06 11:52 47.56692 18.36418 24636 ft 358 kts 284°
2026-05-06 11:53 47.57430 18.32899 24216 ft 357 kts 285°
2026-05-06 11:53 47.58165 18.29403 23798 ft 356 kts 285°
2026-05-06 11:53 47.58908 18.25879 23197 ft 359 kts 285°
2026-05-06 11:53 47.59659 18.22319 22495 ft 364 kts 284°
2026-05-06 11:54 47.60414 18.18745 22013 ft 364 kts 284°
2026-05-06 11:54 47.61166 18.15182 21756 ft 360 kts 284°
2026-05-06 11:54 47.61907 18.11670 21508 ft 355 kts 284°
2026-05-06 11:54 47.62633 18.08221 21036 ft 355 kts 284°
2026-05-06 11:55 47.63372 18.04696 20434 ft 359 kts 284°
2026-05-06 11:55 47.64113 18.01162 19989 ft 358 kts 284°
2026-05-06 11:55 47.64848 17.97650 19574 ft 356 kts 284°
2026-05-06 11:55 47.65579 17.94155 19165 ft 354 kts 284°
2026-05-06 11:56 47.66306 17.90672 18757 ft 353 kts 283°
2026-05-06 11:56 47.67029 17.87198 18352 ft 352 kts 283°
2026-05-06 11:56 47.67748 17.83739 17909 ft 350 kts 283°
2026-05-06 11:56 47.68463 17.80293 17466 ft 348 kts 283°
2026-05-06 11:57 47.69173 17.76865 17064 ft 346 kts 283°
2026-05-06 11:57 47.69877 17.73463 16648 ft 344 kts 283°
2026-05-06 11:57 47.70577 17.70071 16253 ft 342 kts 284°
2026-05-06 11:57 47.71431 17.66795 16003 ft 340 kts 292°
2026-05-06 11:58 47.72510 17.63707 15823 ft 334 kts 294°
2026-05-06 11:58 47.73584 17.60668 15586 ft 330 kts 294°
2026-05-06 11:58 47.74646 17.57654 15312 ft 329 kts 294°
2026-05-06 11:58 47.75686 17.54686 15038 ft 327 kts 293°
2026-05-06 11:59 47.76731 17.51691 14743 ft 325 kts 293°
2026-05-06 11:59 47.77769 17.48707 14452 ft 323 kts 293°
2026-05-06 11:59 47.78798 17.45747 14198 ft 321 kts 293°
2026-05-06 11:59 47.79818 17.42801 13908 ft 320 kts 293°
2026-05-06 12:00 47.80831 17.39867 13635 ft 318 kts 293°
2026-05-06 12:00 47.81838 17.36947 13319 ft 317 kts 293°
2026-05-06 12:00 47.82839 17.34034 13024 ft 315 kts 293°
2026-05-06 12:00 47.83837 17.31138 12715 ft 314 kts 293°
2026-05-06 12:01 47.84843 17.28269 12426 ft 310 kts 297°
2026-05-06 12:01 47.86302 17.25855 11972 ft 321 kts 318°
2026-05-06 12:01 47.88150 17.23967 11701 ft 322 kts 324°
2026-05-06 12:01 47.90055 17.22231 11455 ft 320 kts 325°
2026-05-06 12:02 47.91957 17.20531 11180 ft 319 kts 325°
2026-05-06 12:02 47.93856 17.18841 10934 ft 317 kts 325°
2026-05-06 12:02 47.95748 17.17160 10753 ft 315 kts 325°
2026-05-06 12:02 47.97631 17.15488 10562 ft 315 kts 325°
2026-05-06 12:03 47.99519 17.13816 10373 ft 315 kts 325°
2026-05-06 12:03 48.01407 17.12146 10174 ft 316 kts 325°
2026-05-06 12:03 48.03272 17.10496 10000 ft 316 kts 325°
2026-05-06 12:03 48.05145 17.08841 9783 ft 304 kts 325°
2026-05-06 12:04 48.06958 17.07252 9553 ft 298 kts 325°
2026-05-06 12:04 48.08756 17.05678 9377 ft 300 kts 325°
2026-05-06 12:04 48.10531 17.04127 9163 ft 298 kts 325°
2026-05-06 12:04 48.12310 17.02576 8951 ft 294 kts 325°
2026-05-06 12:05 48.14063 17.01047 8743 ft 290 kts 325°
2026-05-06 12:05 48.15798 16.99533 8526 ft 288 kts 325°
2026-05-06 12:05 48.17520 16.98028 8365 ft 286 kts 325°
2026-05-06 12:05 48.19238 16.96524 8210 ft 288 kts 325°
2026-05-06 12:06 48.20978 16.94992 8049 ft 291 kts 325°
2026-05-06 12:06 48.22735 16.93446 7887 ft 293 kts 325°
2026-05-06 12:06 48.24494 16.91897 7676 ft 292 kts 325°
2026-05-06 12:06 48.26242 16.90358 7514 ft 291 kts 325°
2026-05-06 12:07 48.27993 16.88856 7337 ft 291 kts 330°
2026-05-06 12:07 48.29853 16.87635 7210 ft 291 kts 334°
2026-05-06 12:07 48.31723 16.86527 7085 ft 286 kts 335°
2026-05-06 12:07 48.33557 16.85454 6944 ft 280 kts 335°
2026-05-06 12:08 48.35356 16.84405 6803 ft 275 kts 335°
2026-05-06 12:08 48.37123 16.83377 6666 ft 269 kts 335°
2026-05-06 12:08 48.38850 16.82365 6584 ft 264 kts 335°
2026-05-06 12:08 48.40549 16.81362 6427 ft 260 kts 335°
2026-05-06 12:09 48.42191 16.80386 6337 ft 255 kts 335°
2026-05-06 12:09 48.43819 16.79413 6258 ft 250 kts 335°
2026-05-06 12:09 48.45317 16.78190 5992 ft 244 kts 314°
2026-05-06 12:09 48.46215 16.76106 5726 ft 235 kts 283°
2026-05-06 12:10 48.46611 16.73730 5555 ft 232 kts 276°
2026-05-06 12:10 48.46923 16.71347 5384 ft 231 kts 276°
2026-05-06 12:10 48.47221 16.68972 5180 ft 231 kts 275°
2026-05-06 12:10 48.47526 16.66644 5095 ft 221 kts 275°
2026-05-06 12:11 48.47827 16.64431 5024 ft 211 kts 275°
2026-05-06 12:11 48.48119 16.62329 5011 ft 199 kts 275°
2026-05-06 12:11 48.48401 16.60271 5017 ft 201 kts 275°
2026-05-06 12:11 48.48680 16.58209 5015 ft 200 kts 275°
2026-05-06 12:12 48.48961 16.56156 5016 ft 200 kts 275°
2026-05-06 12:12 48.49254 16.54097 5026 ft 202 kts 275°
2026-05-06 12:12 48.49547 16.52017 5011 ft 202 kts 275°
2026-05-06 12:12 48.49783 16.49955 4993 ft 194 kts 262°
2026-05-06 12:13 48.49384 16.48175 5003 ft 179 kts 224°
2026-05-06 12:13 48.48355 16.47253 5019 ft 175 kts 189°
2026-05-06 12:13 48.47146 16.47083 5033 ft 176 kts 181°
2026-05-06 12:13 48.45912 16.47059 5008 ft 177 kts 180°
2026-05-06 12:14 48.44692 16.47031 5010 ft 173 kts 181°
2026-05-06 12:14 48.43480 16.46986 5014 ft 176 kts 180°
2026-05-06 12:14 48.42253 16.46967 5009 ft 177 kts 180°
2026-05-06 12:14 48.41036 16.46961 5017 ft 172 kts 180°
2026-05-06 12:15 48.39830 16.46950 5004 ft 173 kts 180°
2026-05-06 12:15 48.38609 16.46951 5013 ft 176 kts 180°
2026-05-06 12:15 48.37397 16.47115 5020 ft 175 kts 170°
2026-05-06 12:15 48.36204 16.47541 5011 ft 177 kts 167°
2026-05-06 12:16 48.35015 16.48020 5012 ft 176 kts 166°
2026-05-06 12:16 48.33830 16.48515 4956 ft 178 kts 166°
2026-05-06 12:16 48.32627 16.49025 4718 ft 180 kts 166°
2026-05-06 12:16 48.31442 16.49531 4496 ft 178 kts 166°
2026-05-06 12:17 48.30263 16.50035 4250 ft 174 kts 165°
2026-05-06 12:17 48.29109 16.50528 4024 ft 171 kts 165°
2026-05-06 12:17 48.27977 16.51011 3809 ft 168 kts 164°
2026-05-06 12:17 48.26860 16.51491 3588 ft 166 kts 165°
2026-05-06 12:18 48.25750 16.51964 3368 ft 164 kts 165°
2026-05-06 12:18 48.25012 16.52277 3233 ft 163 kts 165°
2026-05-06 12:18 48.23960 16.52724 3033 ft 157 kts 165°
2026-05-06 12:18 48.22923 16.53168 2815 ft 152 kts 165°
2026-05-06 12:19 48.21928 16.53590 2630 ft 147 kts 165°
2026-05-06 12:19 48.20947 16.54009 2426 ft 147 kts 165°
2026-05-06 12:19 48.19959 16.54429 2245 ft 149 kts 165°
2026-05-06 12:19 48.18956 16.54858 2041 ft 151 kts 165°
2026-05-06 12:20 48.17957 16.55279 1841 ft 147 kts 166°
2026-05-06 12:20 48.16993 16.55683 1596 ft 140 kts 164°
2026-05-06 12:20 48.16078 16.56071 1445 ft 135 kts 164°
2026-05-06 12:20 48.15131 16.56464 1319 ft 146 kts 162°
2026-05-06 12:21 48.14139 16.56903 1078 ft 148 kts 161°
2026-05-06 12:21 48.13167 16.57303 868 ft 141 kts 160°
2026-05-06 12:21 48.12225 16.57707 713 ft 143 kts 160°
2026-05-06 12:21 48.11255 16.58120 631 ft 142 kts 160°
2026-05-06 12:22 48.10397 16.58486 625 ft 106 kts 164°
2026-05-06 12:22 48.09865 16.58714 623 ft 53 kts 163°
2026-05-06 12:22 48.09549 16.58847 625 ft 46 kts 164°
2026-05-06 12:22 48.09264 16.58969 625 ft 40 kts 165°
2026-05-06 12:23 48.09072 16.59049 619 ft 10 kts 164°
2026-05-06 12:23 48.09004 16.59039 620 ft 10 kts 205°
2026-05-06 12:23 48.08949 16.58972 628 ft 10 kts 231°
2026-05-06 12:23 48.08920 16.58876 617 ft 10 kts 259°
2026-05-06 12:24 48.08928 16.58771 624 ft 10 kts 291°
2026-05-06 12:24 48.08972 16.58683 620 ft 11 kts 321°
2026-05-06 12:24 48.09042 16.58640 620 ft 13 kts 344°
2026-05-06 12:24 48.09167 16.58587 628 ft 23 kts 345°
2026-05-06 12:25 48.09323 16.58522 623 ft 23 kts 344°
2026-05-06 12:25 48.09479 16.58456 625 ft 23 kts 344°
2026-05-06 12:25 48.09635 16.58390 625 ft 23 kts 344°
2026-05-06 12:25 48.09792 16.58323 620 ft 24 kts 344°
2026-05-06 12:26 48.09949 16.58256 626 ft 24 kts 345°
2026-05-06 12:26 48.10105 16.58190 620 ft 24 kts 344°
2026-05-06 12:26 48.10263 16.58124 614 ft 24 kts 344°
2026-05-06 12:26 48.10420 16.58058 623 ft 24 kts 344°
2026-05-06 12:27 48.10578 16.57991 625 ft 24 kts 344°
2026-05-06 12:27 48.10735 16.57924 624 ft 24 kts 344°
2026-05-06 12:27 48.10892 16.57858 628 ft 23 kts 344°
2026-05-06 12:27 48.11006 16.57809 628 ft 14 kts 340°
2026-05-06 12:28 48.11069 16.57702 620 ft 14 kts 296°
2026-05-06 12:28 48.11114 16.57566 625 ft 15 kts 296°
2026-05-06 12:28 48.11160 16.57425 624 ft 15 kts 296°
2026-05-06 12:28 48.11208 16.57278 621 ft 16 kts 296°
2026-05-06 12:29 48.11257 16.57126 624 ft 17 kts 296°
2026-05-06 12:29 48.11308 16.56969 621 ft 17 kts 296°
2026-05-06 12:29 48.11361 16.56807 628 ft 18 kts 296°
2026-05-06 12:29 48.11416 16.56640 620 ft 18 kts 296°
2026-05-06 12:30 48.11471 16.56469 625 ft 18 kts 296°
2026-05-06 12:30 48.11526 16.56300 625 ft 18 kts 296°
2026-05-06 12:30 48.11580 16.56136 626 ft 17 kts 296°
2026-05-06 12:30 48.11624 16.56003 628 ft 8 kts 296°
2026-05-06 12:31 48.11657 16.55971 625 ft 6 kts
2026-05-06 12:31 48.11692 16.56007 621 ft 6 kts 58°
2026-05-06 12:31 48.11698 16.56054 618 ft 4 kts 78°
2026-05-06 12:31 48.11718 16.56086 626 ft 4 kts 32°
2026-05-06 12:32 48.11745 16.56107 625 ft 3 kts 26°
2026-05-06 12:32 48.11757 16.56115 623 ft 1 kts 26°
2026-05-06 12:32 48.11758 16.56116 622 ft 0 kts 26°